Weather History for Winnsboro, SC

Change the Weather History Date:

Saturday, November 16, 2013

  Actual Average Record
Temperature  
Mean Temperature 60 °F -  
Max Temperature 69 °F 65 °F 78 °F (2011)
Min Temperature 50 °F 40 °F 32 °F (2014)
Degree Days  
Heating Degree Days 6    
Growing Degree Days 10 (Base 50)    
Moisture  
Dew Point 54 °F    
Average Humidity 89    
Maximum Humidity 100    
Minimum Humidity 60    
Precipitation  
Precipitation 0.00 in - - ()
Sea Level Pressure  
Sea Level Pressure 30.21 in    
Wind  
Wind Speed 3 mph (NNE)    
Max Wind Speed 7 mph    
Max Gust Speed -    
Visibility 8 miles    
Events Fog    
Averages and records for this station are not official NWS values.
T = Trace of Precipitation, MM = Missing Value Source: NWS Daily Summary

Daily Weather History Graph

Daily Weather History Graph

Search for Another Location

Airport:

Trip Planner

Search our weather history database for the weather conditions in past years. The results will help you decide how hot, cold, wet, or windy it might be!

Date:

Astronomy

Nov. 16, 2013 Rise Set
Actual Time 6:58 AM EST 5:19 PM EST
Civil Twilight 6:31 AM EST 5:46 PM EST
Nautical Twilight 6:01 AM EST 6:16 PM EST
Astronomical Twilight 5:31 AM EST 6:46 PM EST
Moon 4:52 PM EST (11/16) 5:55 AM EST (11/16)
Length of Visible Light 11h 14m
Length of Day
10h 20m
Waxing Gibbous, 99% of the Moon is Illuminated
Nov 16
Waxing Gibbous
Nov 17
Full
Nov 25
Last Quarter
Dec 2
New
Dec 9
First Quarter

Hourly Weather History & Observations

Time (EST) Temp. Dew Point Humidity Pressure Visibility Wind Dir Wind Speed Gust Speed Precip Events Conditions
12:15 AM 53.6 °F 53.6 °F 100% 30.21 in 10.0 mi ENE 4.6 mph - N/A   Overcast
12:35 AM 53.6 °F 53.6 °F 100% 30.21 in 10.0 mi NE 3.5 mph - N/A   Overcast
12:55 AM 53.6 °F 53.6 °F 100% 30.20 in 10.0 mi Calm Calm - N/A   Overcast
1:15 AM 53.6 °F 53.6 °F 100% 30.20 in 10.0 mi Calm Calm - N/A   Overcast
1:35 AM 53.6 °F 53.6 °F 100% 30.20 in 10.0 mi NE 4.6 mph - N/A   Overcast
1:55 AM 53.6 °F 51.8 °F 94% 30.19 in 10.0 mi Calm Calm - N/A   Overcast
2:15 AM 53.6 °F 51.8 °F 94% 30.20 in 10.0 mi North 3.5 mph - N/A   Overcast
2:35 AM 53.6 °F 51.8 °F 94% 30.21 in 10.0 mi Calm Calm - N/A   Overcast
2:55 AM 53.6 °F 51.8 °F 94% 30.21 in 10.0 mi Calm Calm - N/A   Overcast
3:15 AM 53.6 °F 51.8 °F 94% 30.21 in 10.0 mi Calm Calm - N/A   Overcast
3:35 AM 53.6 °F 51.8 °F 94% 30.22 in 10.0 mi Calm Calm - N/A   Overcast
3:55 AM 53.6 °F 51.8 °F 94% 30.21 in 10.0 mi Calm Calm - N/A   Overcast
4:15 AM 53.6 °F 51.8 °F 94% 30.21 in 10.0 mi Calm Calm - N/A   Mostly Cloudy
4:35 AM 51.8 °F 51.8 °F 100% 30.21 in 10.0 mi Calm Calm - N/A   Scattered Clouds
4:55 AM 51.8 °F 51.8 °F 100% 30.21 in 10.0 mi Calm Calm - N/A   Clear
5:15 AM 50.0 °F 50.0 °F 100% 30.21 in 1.0 mi NNE 3.5 mph - N/A   Mostly Cloudy
5:35 AM 51.8 °F 51.8 °F 100% 30.20 in 7.0 mi NNE 4.6 mph - N/A   Scattered Clouds
5:55 AM 50.0 °F 50.0 °F 100% 30.20 in 7.0 mi NNE 3.5 mph - N/A   Clear
6:15 AM 50.0 °F 50.0 °F 100% 30.21 in 7.0 mi Calm Calm - N/A   Clear
6:35 AM 50.0 °F 50.0 °F 100% 30.21 in 1.2 mi NNE 3.5 mph - N/A   Mostly Cloudy
6:55 AM 51.8 °F 51.8 °F 100% 30.22 in 7.0 mi Calm Calm - N/A   Overcast
7:15 AM 50.0 °F 50.0 °F 100% 30.21 in 7.0 mi NNE 4.6 mph - N/A   Mostly Cloudy
7:35 AM 50.0 °F 50.0 °F 100% 30.22 in 4.0 mi Calm Calm - N/A   Mostly Cloudy
7:55 AM 51.8 °F 51.8 °F 100% 30.22 in 5.0 mi NNE 5.8 mph - N/A   Overcast
8:15 AM 51.8 °F 51.8 °F 100% 30.23 in 4.0 mi NE 4.6 mph - N/A   Overcast
8:35 AM 53.6 °F 53.6 °F 100% 30.24 in 4.0 mi NNE 5.8 mph - N/A   Overcast
8:55 AM 53.6 °F 53.6 °F 100% 30.25 in 0.5 mi Calm Calm - N/A Fog Fog
9:15 AM 53.6 °F 53.6 °F 100% 30.25 in 0.2 mi NNE 3.5 mph - N/A Fog Fog
9:35 AM 53.6 °F 53.6 °F 100% 30.26 in 0.5 mi NNE 3.5 mph - N/A Fog Fog
9:55 AM 55.4 °F 55.4 °F 100% 30.26 in 1.2 mi Calm Calm - N/A   Overcast
10:15 AM 55.4 °F 55.4 °F 100% 30.27 in 2.5 mi Calm Calm - N/A   Overcast
10:35 AM 55.4 °F 55.4 °F 100% 30.27 in 3.0 mi Calm Calm - N/A   Overcast
10:55 AM 57.2 °F 55.4 °F 94% 30.27 in 4.0 mi NNE 5.8 mph - N/A   Overcast
11:15 AM 57.2 °F 55.4 °F 94% 30.27 in 5.0 mi NNE 3.5 mph - N/A   Overcast
11:35 AM 59.0 °F 55.4 °F 88% 30.26 in 10.0 mi NNE 3.5 mph - N/A   Overcast
11:55 AM 59.0 °F 57.2 °F 94% 30.25 in 10.0 mi NE 4.6 mph - N/A   Overcast
12:15 PM 59.0 °F 55.4 °F 88% 30.24 in 10.0 mi North 3.5 mph - N/A   Overcast
12:35 PM 62.6 °F 57.2 °F 82% 30.23 in 10.0 mi Calm Calm - N/A   Overcast
12:55 PM 62.6 °F 57.2 °F 82% 30.23 in 10.0 mi ENE 4.6 mph - N/A   Scattered Clouds
1:15 PM 64.4 °F 57.2 °F 77% 30.22 in 10.0 mi North 4.6 mph - N/A   Clear
1:35 PM 66.2 °F 57.2 °F 73% 30.21 in 10.0 mi NNE 4.6 mph - N/A   Clear
1:55 PM 68.0 °F 57.2 °F 68% 30.20 in 10.0 mi NE 3.5 mph - N/A   Clear
2:15 PM 68.0 °F 57.2 °F 68% 30.19 in 10.0 mi NE 4.6 mph - N/A   Clear
2:35 PM 69.8 °F 57.2 °F 64% 30.18 in 10.0 mi East 3.5 mph - N/A   Clear
2:55 PM 69.8 °F 55.4 °F 60% 30.19 in 10.0 mi ESE 3.5 mph - N/A   Scattered Clouds
3:15 PM 69.8 °F 55.4 °F 60% 30.18 in 10.0 mi NNE 3.5 mph - N/A   Scattered Clouds
3:35 PM 68.0 °F 55.4 °F 64% 30.18 in 10.0 mi Calm Calm - N/A   Mostly Cloudy
3:55 PM 69.8 °F 55.4 °F 60% 30.18 in 10.0 mi Calm Calm - N/A   Scattered Clouds
4:15 PM 69.8 °F 55.4 °F 60% 30.18 in 10.0 mi Calm Calm - N/A   Clear
4:35 PM 68.0 °F 55.4 °F 64% 30.18 in 10.0 mi Calm Calm - N/A   Clear
4:55 PM 68.0 °F 55.4 °F 64% 30.18 in 10.0 mi NE 3.5 mph - N/A   Scattered Clouds
5:15 PM 64.4 °F 55.4 °F 73% 30.17 in 10.0 mi NNE 3.5 mph - N/A   Clear
5:35 PM 64.4 °F 55.4 °F 73% 30.17 in 10.0 mi Calm Calm - N/A   Clear
5:55 PM 60.8 °F 55.4 °F 82% 30.17 in 10.0 mi NNE 3.5 mph - N/A   Clear
6:15 PM 62.6 °F 55.4 °F 77% 30.18 in 10.0 mi Calm Calm - N/A   Clear
6:35 PM 60.8 °F 55.4 °F 82% 30.19 in 10.0 mi North 3.5 mph - N/A   Clear
6:55 PM 59.0 °F 55.4 °F 88% 30.20 in 10.0 mi North 5.8 mph - N/A   Mostly Cloudy
7:15 PM 59.0 °F 55.4 °F 88% 30.21 in 10.0 mi North 5.8 mph - N/A   Overcast
7:35 PM 60.8 °F 55.4 °F 82% 30.21 in 10.0 mi North 5.8 mph - N/A   Overcast
7:55 PM 60.8 °F 55.4 °F 82% 30.21 in 10.0 mi North 4.6 mph - N/A   Overcast
8:15 PM 60.8 °F 55.4 °F 82% 30.21 in 10.0 mi NNE 5.8 mph - N/A   Overcast
8:35 PM 59.0 °F 55.4 °F 88% 30.21 in 10.0 mi NNE 4.6 mph - N/A   Mostly Cloudy
8:55 PM 59.0 °F 55.4 °F 88% 30.21 in 10.0 mi NNE 4.6 mph - N/A   Scattered Clouds
9:15 PM 59.0 °F 55.4 °F 88% 30.21 in 10.0 mi NNE 4.6 mph - N/A   Clear
9:35 PM 59.0 °F 55.4 °F 88% 30.21 in 10.0 mi NNE 4.6 mph - N/A   Clear
9:55 PM 57.2 °F 55.4 °F 94% 30.22 in 10.0 mi NNE 4.6 mph - N/A   Clear
10:15 PM 57.2 °F 55.4 °F 94% 30.22 in 10.0 mi NNE 4.6 mph - N/A   Clear
10:35 PM 55.4 °F 55.4 °F 100% 30.21 in 10.0 mi NE 5.8 mph - N/A   Clear
10:55 PM 57.2 °F 55.4 °F 94% 30.22 in 10.0 mi NNE 4.6 mph - N/A   Scattered Clouds
11:15 PM 57.2 °F 55.4 °F 94% 30.22 in 10.0 mi NNE 4.6 mph - N/A   Mostly Cloudy
11:35 PM 57.2 °F 55.4 °F 94% 30.21 in 10.0 mi NE 6.9 mph - N/A   Overcast
11:55 PM 57.2 °F 55.4 °F 94% 30.21 in 10.0 mi NE 6.9 mph - N/A   Mostly Cloudy